Погода в Котласе

Погода в Котласе : погода сейчас, прогноз погоды и архив. Всё, что Вы хотите узнать о погоде в Котласе!

Поиск расширенной информации на нашем сайте:

Другие новости

Новости СМИ2

Главная страница сайта

Новости сайта

02.10.2013

Напоминаем, что на нашем новом сайте вы можете получить высокодетализированные прогнозы погоды по пунктам России, СНГ и мира (включающие важные для авиации метеовеличины, такие как направление и скорость ветра, видимость, явления погоды, количество и форма облачности, нижняя и верхняя граница облачности), а также ознакомиться с разнообразными материалами по авиационной метеорологии и подборкой полезных ссылок на эту тему.

Сайт Метеоцентр.Азия посвящён разработке технологий оптимизации авиаметеорологического обслуживания, включая проектирование и перспективное создание нескольких автоматизированных авиаметеорологических систем:
- система выпуска высокодетальных прогностических карт явлений погоды для нижнего воздушного пространства по России и ближнему зарубежью;
- система верификации прогнозов TAF (выпускаемых синоптиками официальных АМСГ РФ и ближнего зарубежья) и AUTOTAF (выпускаемых сайтом Метеоцентр.Азия) - выявление ошибок, онлайн-сопоставление с фактической погодой METAR, автоматическое внесение коррективов в прогнозы при резком отклонении фактической погоды от прогноза, подсчёт оправдываемости прогнозов по элементам и в целом;
- система обработки, анализа и отображения авиаметеорологической информации для применения провайдерами метеорологической информации.

Рекомендуем: дизель генератор 60 квт цена

Погода в Котласе - сегодня

Время (UTC), дата Ветер
(°,м/с) 
Видим.   Явления Облачность Т
(°С)
Тd
(°С)
f(%) Тe
(°С)
Pmin
(гПа)
dP
(гПа)
Po
(мм)
O2
(г/м3)
Тmin Tmax R s Состояние
почвы
06 22.03.17 160 (Ю) 6000 м  дымка{ливн. осадки}  10/8 240 м средняя 
[St|Ac und]
+1.7 +0.3 90 1016.8  757  303           
09 22.03.17 170 (Ю) 20000 м    10/8 500 м средняя 
[Sc|Ac trans]
+3.2 -0.3 78 +1  1016.7  0.1  757  302           
12 22.03.17 180 (Ю) 3{10}  20000 м    10/4 600 м средняя 
[Sc|Ac trans]
+5 -1.9 61 +4  1015.6  -1.1  757  300           
15 22.03.17 150 (ЮВ) 20000 м    10/4 600 м средняя 
[Sc|Ac und]
+5.5 -2.2 58 +4  1014.4  -1.2  756  299    +5.8  0.0     
18 22.03.17 170 (Ю) 10 км    8/4 1000 м верхняя 
[Sc|Ci fib]
+5 -3.3 55 +3  1013.6  -0.8  755  299           
21 22.03.17 170 (Ю) 10 км    10/3 1000 м средняя, верхняя 
[Sc|Ac trans|Ci fib]
+4.8 -2.2 60 +3  1012.6  -1  754  299           
00 23.03.17 160 (Ю) 10 км  слаб. ливневой дождь  10/10 750 м кучево-дожд. 
[Cb cap]
+3.6 +1.5 86 +2  1010.3  -2.3  753  299           
03 23.03.17 170 (Ю) 4100 м  слаб. ливневой дождь  10/10 420 м кучево-дожд. 
[Cb cap]
+2.6 +2.1 96 +1  1009.2  -1.1  752  300  +2.6    26  равномерный
мокрый или
старый снег
100% 
06 23.03.17 240 (ЮЗ) 6000 м  дымка{ливн. осадки}  10/5 300 м кучево-дожд., средняя, верхняя 
[Cb cap|Ac trans|Ci fib]
+2.8 +2.3 97 +2  1009.5  0.3  752  300  +2.2         
09 23.03.17 240 (ЮЗ) 20000 м    10/5 300 м кучево-дожд., средняя, верхняя 
[Cb cap|Ac trans|Ci fib]
+3.6 -1.1 71 +2  1010.3  0.8  753  299           
12 23.03.17 220 (ЮЗ) 20000 м    8/6 960 м средняя 
[Sc|Ac trans]
+6.1 -5.1 44 +5  1010.3  753  297           
15 23.03.17 220 (ЮЗ) 20000 м    10/4 600 м средняя, верхняя 
[Sc|Ac trans|Ci fib]
+3.6 -3 62 +3  1010.7  0.4  753  300    +6.1     
18 23.03.17 180 (Ю) 10 км  {ливн. осадки}  10/4 1000 м средняя 
[Sc|Ac und]
+1.5 -0.5 87 1011.8  0.9  754  302           
21 23.03.17 200 (Ю) 10 км    10/4 1000 м средняя 
[Sc|Ac und]
+1.7 -0.8 83 1011.7  -0.1  753  302           
00 24.03.17 200 (Ю) 10 км    10/4 600 м средняя 
[Sc|Ac und]
+1.7 -1.7 78 1011.2  -0.5  753  302           
03 24.03.17 200 (Ю) 20000 м    9/3 600 м средняя, верхняя 
[Sc|Ac trans|Ci fib]
+0.1 -2.3 84 -1  1011.1  -0.1  753  304  +0.1    0.0  22  равномерный
мокрый или
старый снег
100% 
06 24.03.17 230 (ЮЗ) 20000 м    10/6 средняя, верхняя 
[Sc|Ac trans|Ci fib]
+1.3 -2.9 74 -1  1011.7  0.6  753  302  -0.2         
09 24.03.17 220 (ЮЗ) 20000 м    9/4 600 м средняя, верхняя 
[Sc|Ac trans|Ci fib]
+4.2 -8.8 38 +2  1010.5  -1  753  300           
12 24.03.17 210 (ЮЗ) 20000 м    10/4 1000 м средняя, верхняя 
[Sc|Ac trans|Ci fib]
+4.8 -12.1 28 +4  1009.6  -0.9  752  299           
15 24.03.17 180 (Ю) 20000 м    8/3 1000 м средняя, верхняя 
[Sc|Ac trans|Ci fib]
+3.6 -12.3 30 +3  1008.5  -1.1  751  300    +5.3       
18 24.03.17 нст () 10 км    6/0 верхняя 
[Ci fib]
-2.1 -4.6 83 -2  1008.4  -0.3  751  305           
21 24.03.17 тихо ()   10 км    4/0 средняя, верхняя 
[Ac trans|Ci fib]
-3.5 -4.3 94 -4  1007.2  -1  750  307           
03 25.03.17 320 (СЗ) 0600 м  сильн. снег  ?/? 150 
-2.6 -3.2 96 -4  1005.9  749  305  -3.8    0.4  21  равномерный
сухой снег
100% 
06 25.03.17 330 (СЗ) 10 км  слаб. снег  10/6 330 м средняя 
[Frnb|As op]
-2.7 -4.3 89 -5  1005.5  -0.4  749  305           
09 25.03.17 310 (СЗ) 20000 м  {снег}  9/4 600 м средняя 
[Sc|Ac trans]
-0.6 -5.1 72 -2  1005.2  -0.3  749  303           
Время (UTC), дата Ветер
(°,м/с) 
Видим.   Явления Облачность Т
(°С)
Тd
(°С)
f(%) Тe
(°С)
Pmin
(гПа)
dP
(гПа)
Po
(мм)
O2
(г/м3)
Тmin Tmax R s Состояние
почвы

Для получения пояснительной информации подведите курсор к названию столбца.

ПОГОДА в Котласе - архив

Всё, что Вы хотите узнать о погоде в Котласе - удобно и подробно!

Выберите нужную дату (начиная с 1 января 2015* года) и нажмите кнопку "Найти".
Будут отображены архивные сводки погоды по пункту Котлас, начиная с указанной даты.


Отображать данные в формате CSV (для использования в таблицах Excel)


Внимание! Наш архив погоды предназначен исключительно для личного некоммерческого использования в познавательных целях. Если Вам необходимы официальные справки о состоянии погоды (для производственных, юридических, коммерческих и т.п. целей), обращайтесь в органы Росгидромета.

*Примечание: данная дата относится к архиву по метеостанциям СССР (Россия, СНГ, Балтия).
Архив по метеостанциям Зарубежной Европы и Азии (кроме Китая) хранится 10 дней, по другим регионам земного шара (Китай, Африка, Америка, Австралия, Океания) - 1 день.

Котлас - район местоположения метеостанции


Название, широта, долгота, высота метеостанции:
Котлас 61.2°ш. 46.7°д. 56 м над ур. моря [Российская Федерация]

Дополнительная информация

В oтличие oт бoльшинства пoгoдных сайтoв мы публикуем пoдрoбную метеoинфoрмацию в детальнoм прoфессиoнальнoм фoрмате.

Характеристики температуры и влажнoсти вoздуха измеряются на высoте 2 м в тени вдали oт зданий и деревьев.
Скoрoсть ветра измеряется на высoте 10 м (на урoвне рoста челoвека скoрoсть ветра ниже в 1.5-2 раза). Если метеoстанция нахoдится в гoрoде или в лесу, тo скoрoсть ветра занижена на 2-4 м/с пo сравнению с oткрытым местoм. Скoрoсть ветра над акватoриями крупных рек и oзёр, а также на вершинах хoлмoв на 2-5 м/с выше, чем в oбычных услoвиях.
Атмoсфернoе давление в разных тoчках местнoсти мoжет значительнo oтличаться oт давления на метеoстанции, в зависимoсти oт услoвий рельефа (при пoдъёме на 10 м давление пoнижается примернo на 1 мм рт.ст.).